| time (UTC) | temp C | wind direction | speed KPH | gust KPH | rain 1hr cm | rain 24hr cm | rain mn cm | humidity % | barometer mb |
| 20260902130029 | 22 | 360 | 0.0 | 0.0 | 0.00 | 0.00 | 0.00 | 96 | 1020.1 |
| 20260902124506 | 21 | 360 | 0.0 | 0.0 | 0.00 | 0.00 | 0.00 | 96 | 1020.2 |
| 20260902123011 | 21 | 360 | 0.0 | 0.0 | 0.00 | 0.00 | 0.00 | 96 | 1020.3 |
| 20260902121516 | 21 | 360 | 0.0 | 0.0 | 0.00 | 0.00 | 0.00 | 95 | 1020.0 |
| 20260902120013 | 21 | 360 | 0.0 | 0.0 | 0.00 | 0.00 | 0.00 | 95 | 1019.9 |
| 20260902114526 | 21 | 360 | 0.0 | 0.0 | 0.00 | 0.00 | 0.00 | 95 | 1019.8 |
| 20260902113049 | 21 | 360 | 0.0 | 0.0 | 0.00 | 0.00 | 0.00 | 95 | 1019.5 |
| 20260902111515 | 21 | 360 | 0.0 | 0.0 | 0.00 | 0.00 | 0.00 | 95 | 1019.3 |
| 20260902110020 | 21 | 360 | 0.0 | 0.0 | 0.00 | 0.00 | 0.00 | 95 | 1019.1 |
| 20260902104511 | 21 | 360 | 0.0 | 0.0 | 0.00 | 0.00 | 0.00 | 95 | 1019.0 |
| 20260902103024 | 21 | 360 | 0.0 | 0.0 | 0.00 | 0.00 | 0.00 | 94 | 1018.9 |
| 20260902101537 | 21 | 360 | 0.0 | 0.0 | 0.00 | 0.00 | 0.00 | 95 | 1018.8 |
| 20260902100019 | 21 | 360 | 0.0 | 0.0 | 0.00 | 0.00 | 0.00 | 95 | 1018.7 |
| 20260902094524 | 21 | 360 | 0.0 | 0.0 | 0.00 | 0.00 | 0.00 | 95 | 1018.5 |
| 20260902093028 | 21 | 360 | 0.0 | 0.0 | 0.00 | 0.00 | 0.00 | 94 | 1018.5 |
| 20260902091526 | 21 | 360 | 0.0 | 0.0 | 0.00 | 0.00 | 0.00 | 94 | 1018.4 |
| 20260902090034 | 21 | 360 | 0.0 | 0.0 | 0.00 | 0.00 | 0.00 | 94 | 1018.2 |
| 20260902084518 | 21 | 360 | 0.0 | 0.0 | 0.00 | 0.00 | 0.00 | 94 | 1018.0 |
| 20260902083034 | 21 | 360 | 0.0 | 0.0 | 0.00 | 0.00 | 0.00 | 94 | 1018.1 |
| 20260902081530 | 22 | 360 | 0.0 | 0.0 | 0.00 | 0.00 | 0.00 | 93 | 1018.0 |
| 20260902080018 | 22 | 360 | 0.0 | 0.0 | 0.00 | 0.00 | 0.00 | 94 | 1017.9 |
| 20260902074531 | 22 | 360 | 0.0 | 0.0 | 0.00 | 0.00 | 0.00 | 93 | 1017.8 |
| 20260902073023 | 22 | 360 | 0.0 | 0.0 | 0.00 | 0.00 | 0.00 | 93 | 1017.9 |
| 20260902071524 | 22 | 360 | 0.0 | 0.0 | 0.00 | 0.00 | 0.00 | 93 | 1017.9 |
| 20260902070011 | 22 | 360 | 0.0 | 0.0 | 0.00 | 0.00 | 0.00 | 93 | 1017.8 |
| 20260902064513 | 22 | 360 | 0.0 | 0.0 | 0.00 | 0.00 | 0.00 | 92 | 1017.9 |
| 20260902063020 | 22 | 360 | 0.0 | 0.0 | 0.00 | 0.00 | 0.00 | 92 | 1018.0 |
| 20260902062142 | 23 | 360 | 0.0 | 0.0 | 0.00 | 0.00 | 0.00 | 92 | 1018.0 |
| 20260902062133 | 23 | 360 | 0.0 | 0.0 | 0.00 | 0.00 | 0.00 | 92 | 1018.1 |
| 20260902062130 | 23 | 360 | 0.0 | 0.0 | 0.00 | 0.00 | 0.00 | 91 | 1018.2 |
| 20260902051520 | 23 | 360 | 0.0 | 0.0 | 0.00 | 0.00 | 0.00 | 90 | 1018.1 |
| 20260902050009 | 23 | 360 | 0.0 | 0.0 | 0.00 | 0.00 | 0.00 | 90 | 1018.0 |
| 20260902044521 | 23 | 360 | 0.0 | 0.0 | 0.00 | 0.00 | 0.00 | 90 | 1018.1 |
| 20260902043011 | 23 | 360 | 0.0 | 0.0 | 0.00 | 0.00 | 0.00 | 90 | 1018.1 |
| 20260902041514 | 24 | 360 | 0.0 | 0.0 | 0.00 | 0.00 | 0.00 | 89 | 1018.2 |
| 20260902040027 | 24 | 360 | 0.0 | 0.0 | 0.00 | 0.00 | 0.00 | 88 | 1018.2 |
| 20260902034508 | 25 | 360 | 0.0 | 0.0 | 0.00 | 0.00 | 0.00 | 87 | 1018.3 |
| 20260902033009 | 25 | 360 | 0.0 | 0.0 | 0.00 | 0.00 | 0.00 | 85 | 1018.3 |
| 20260902031530 | 25 | 360 | 0.0 | 0.0 | 0.00 | 0.00 | 0.00 | 84 | 1018.5 |
| 20260902030012 | 26 | 360 | 0.0 | 0.0 | 0.00 | 0.00 | 0.00 | 84 | 1018.5 |
| 20260902024524 | 26 | 360 | 0.0 | 0.0 | 0.00 | 0.00 | 0.00 | 83 | 1018.5 |
| 20260902023035 | 26 | 360 | 0.0 | 0.0 | 0.00 | 0.00 | 0.00 | 83 | 1018.4 |
| 20260902021512 | 27 | 360 | 0.0 | 0.0 | 0.00 | 0.00 | 0.00 | 81 | 1018.2 |
| 20260902020025 | 27 | 360 | 0.0 | 0.0 | 0.00 | 0.00 | 0.00 | 77 | 1018.2 |
| 20260902014515 | 27 | 360 | 0.0 | 0.0 | 0.00 | 0.00 | 0.00 | 75 | 1017.9 |
| 20260902013024 | 28 | 360 | 0.0 | 0.0 | 0.00 | 0.00 | 0.00 | 71 | 1017.9 |
| 20260902011540 | 28 | 360 | 0.0 | 0.0 | 0.00 | 0.00 | 0.00 | 68 | 1017.8 |
| 20260902010014 | 29 | 360 | 0.0 | 3.2 | 0.00 | 0.00 | 0.00 | 67 | 1017.6 |
| 20260902004525 | 30 | 360 | 0.0 | 1.6 | 0.00 | 0.00 | 0.00 | 64 | 1017.6 |
| 20260902003030 | 30 | 341 | 0.0 | 1.6 | 0.00 | 0.00 | 0.00 | 60 | 1017.5 |
| 20260902001516 | 31 | 341 | 0.0 | 0.0 | 0.00 | 0.00 | 0.00 | 58 | 1017.5 |
| 20260902000038 | 32 | 341 | 0.0 | 3.2 | 0.00 | 0.00 | 0.00 | 57 | 1017.6 |
| 20260901234513 | 32 | 341 | 0.0 | 0.0 | 0.00 | 0.00 | 0.00 | 54 | 1017.6 |
| 20260901233026 | 33 | 292 | 0.0 | 3.2 | 0.00 | 0.00 | 0.00 | 49 | 1017.7 |
| 20260901231520 | 34 | 292 | 0.0 | 3.2 | 0.00 | 0.00 | 0.00 | 50 | 1017.7 |
| 20260901230016 | 35 | 292 | 0.0 | 3.2 | 0.00 | 0.00 | 0.00 | 1017.6 | |
| 20260901224515 | 35 | 292 | 0.0 | 3.2 | 0.00 | 0.00 | 0.00 | 44 | 1017.7 |
| 20260901223017 | 35 | 88 | 0.0 | 3.2 | 0.00 | 0.00 | 0.00 | 48 | 1017.6 |
| 20260901221554 | 35 | 35 | 0.0 | 3.2 | 0.00 | 0.00 | 0.00 | 46 | 1017.6 |
| 20260901220038 | 35 | 82 | 0.0 | 3.2 | 0.00 | 0.00 | 0.00 | 45 | 1017.6 |
| 20260901214527 | 36 | 9 | 1.6 | 3.2 | 0.00 | 0.00 | 0.00 | 44 | 1017.6 |
| 20260901213024 | 37 | 70 | 0.0 | 3.2 | 0.00 | 0.00 | 0.00 | 45 | 1017.7 |
| 20260901211516 | 36 | 134 | 0.0 | 3.2 | 0.00 | 0.00 | 0.00 | 45 | 1017.8 |
| 20260901210027 | 36 | 86 | 0.0 | 3.2 | 0.00 | 0.00 | 0.00 | 46 | 1017.9 |
| 20260901204529 | 36 | 264 | 0.0 | 9.7 | 0.00 | 0.00 | 0.00 | 44 | 1018.0 |
| 20260901203031 | 36 | 118 | 0.0 | 3.2 | 0.00 | 0.00 | 0.00 | 45 | 1018.1 |
| 20260901201523 | 35 | 199 | 1.6 | 8.0 | 0.00 | 0.00 | 0.00 | 44 | 1018.2 |
| 20260901200033 | 35 | 162 | 4.8 | 8.0 | 0.00 | 0.00 | 0.00 | 46 | 1018.3 |
| 20260901194520 | 35 | 196 | 4.8 | 9.7 | 0.00 | 0.00 | 0.00 | 45 | 1018.4 |
| 20260901193026 | 35 | 168 | 1.6 | 6.4 | 0.00 | 0.00 | 0.00 | 45 | 1018.6 |
| 20260901191552 | 35 | 266 | 1.6 | 8.0 | 0.00 | 0.00 | 0.00 | 46 | 1018.9 |
| 20260901190024 | 34 | 178 | 3.2 | 9.7 | 0.00 | 0.00 | 0.00 | 47 | 1019.1 |
| 20260901184525 | 35 | 285 | 3.2 | 6.4 | 0.00 | 0.00 | 0.00 | 1019.1 | |
| 20260901183005 | 34 | 57 | 1.6 | 6.4 | 0.00 | 0.00 | 0.00 | 1019.2 | |
| 20260901181514 | 34 | 212 | 1.6 | 9.7 | 0.00 | 0.00 | 0.00 | 1019.3 | |
| 20260901180007 | 34 | 153 | 3.2 | 9.7 | 0.00 | 0.00 | 0.00 | 1019.5 | |
| 20260901174516 | 33 | 329 | 6.4 | 12.9 | 0.00 | 0.00 | 0.00 | 1019.7 | |
| 20260901173011 | 33 | 261 | 3.2 | 8.0 | 0.00 | 0.00 | 0.00 | 48 | 1020.0 |
| 20260901171505 | 33 | 26 | 1.6 | 8.0 | 0.00 | 0.00 | 0.00 | 53 | 1020.1 |
| 20260901170004 | 33 | 281 | 1.6 | 8.0 | 0.00 | 0.00 | 0.00 | 56 | 1020.2 |
| 20260901164504 | 33 | 332 | 1.6 | 12.9 | 0.00 | 0.00 | 0.00 | 55 | 1020.4 |
| 20260901163017 | 32 | 11 | 1.6 | 6.4 | 0.00 | 0.00 | 0.00 | 60 | 1020.6 |
| 20260901161525 | 32 | 42 | 1.6 | 9.7 | 0.00 | 0.00 | 0.00 | 56 | 1020.7 |
| 20260901160008 | 32 | 188 | 3.2 | 8.0 | 0.00 | 0.00 | 0.00 | 55 | 1020.8 |
| 20260901154513 | 32 | 156 | 1.6 | 6.4 | 0.00 | 0.00 | 0.00 | 57 | 1020.9 |
| 20260901153006 | 31 | 184 | 1.6 | 6.4 | 0.00 | 0.00 | 0.00 | 60 | 1020.8 |
| 20260901151531 | 31 | 226 | 1.6 | 4.8 | 0.00 | 0.00 | 0.00 | 65 | 1020.9 |
| 20260901150034 | 30 | 300 | 1.6 | 3.2 | 0.00 | 0.00 | 0.00 | 67 | 1020.9 |
| 20260901144508 | 29 | 159 | 0.0 | 4.8 | 0.00 | 0.00 | 0.00 | 70 | 1021.0 |
| 20260901143019 | 28 | 170 | 0.0 | 3.2 | 0.00 | 0.00 | 0.00 | 74 | 1020.8 |
| 20260901141513 | 27 | 171 | 0.0 | 3.2 | 0.00 | 0.00 | 0.00 | 79 | 1021.0 |
| 20260901140010 | 25 | 178 | 1.6 | 3.2 | 0.00 | 0.00 | 0.00 | 84 | 1021.0 |
| 20260901134524 | 24 | 205 | 0.0 | 0.0 | 0.00 | 0.00 | 0.00 | 90 | 1020.9 |
| 20260901133013 | 23 | 178 | 0.0 | 0.0 | 0.00 | 0.00 | 0.00 | 94 | 1021.0 |
| 20260901131527 | 22 | 178 | 0.0 | 0.0 | 0.00 | 0.00 | 0.00 | 96 | 1020.8 |